Simultaneous Nadir Overpasses (SNOs) Predictions

Prediction of SNOs between AQUA and METOP-A Satellite Orbit:

Table of predicted SNOs for the next 14.0 days since TLE Epoch: 4/17/2020
Index Date (AQUA) Time (AQUA) Lat,Lon (AQUA) SZA (AQUA ) Date (METOP-A) Time (METOP-A) Lat,Lon (METOP-A) SZA (METOP-A ) Distance(km) Time Diff (sec)
1 04/18/2020 00:23:22 -76.09, -17.28 114.63 04/18/2020 00:22:36 -76.07, -17.39 114.62 3.31 46
2 04/18/2020 01:12:51 76.14, 150.18 65.43 04/18/2020 01:13:14 76.16, 150.24 65.44 2.75 23
3 04/20/2020 19:57:37 -76.10, 49.11 115.58 04/20/2020 19:56:58 -76.10, 49.06 115.57 1.49 39
4 04/20/2020 20:47:06 76.16,-143.44 64.48 04/20/2020 20:47:37 76.14,-143.48 64.45 2.63 31
5 04/23/2020 15:31:51 -76.12, 115.49 116.51 04/23/2020 15:31:19 -76.13, 115.50 116.49 0.77 32
6 04/23/2020 16:21:20 76.19, -77.08 63.56 04/23/2020 16:21:58 76.16, -77.06 63.53 2.69 38
7 04/26/2020 11:06:06 -76.15,-178.16 117.40 04/26/2020 11:05:41 -76.15,-178.07 117.39 2.48 25
8 04/26/2020 11:55:34 76.17, -10.58 62.62 04/26/2020 11:56:20 76.18, -10.63 62.63 2.17 46
9 04/29/2020 06:40:20 -76.13,-111.66 118.31 04/29/2020 06:40:04 -76.13,-111.79 118.29 3.43 16




NCC Satellite Simultaneous Nadir Overpasses (SNOs) Prediction Service
